[[{"header":{"parameterUnit":"m.s-1","parameterCategory":2,"la1":30.2992,"la2":30.254,"lo1":-89.0895,"lo2":-89.0443,"dy":0.0025,"dx":0.0025,"nx":19,"ny":19,"refTime":"2026-04-15T03:00:00:Z","depth":"0","parameterNumber":2,"parameterNumberName":"U-component_of_CURRENTS"},"data":[0,0,0,-0.0795,-0.0798,-0.0909,-0.0909,-0.0803,-0.0802,0,0,0,0,0,0,0,0,0,0,0,-0.0745,-0.0745,-0.0795,-0.0798,-0.0909,-0.0909,-0.0804,-0.0802,0,0,0,0,0,0,0,0,0,0,0,-0.0745,-0.0745,-0.0746,-0.0798,-0.0909,-0.0909,-0.0804,-0.0781,0,0,0,0,0,0,0,0,0,0,-0.0704,-0.0688,-0.0745,-0.0746,-0.0799,-0.0909,-0.0909,-0.0783,-0.0783,-0.0683,0,-0.0701,0,-0.0748,-0.0789,-0.0789,0,0,0,-0.0796,-0.0689,-0.0726,-0.0746,-0.08,-0.0908,-0.0858,-0.0785,-0.0784,-0.0681,-0.0701,-0.0699,-0.0746,-0.0788,-0.0787,-0.0614,-0.0613,0,0,-0.079,-0.0752,-0.0727,-0.0726,-0.0824,-0.0855,-0.0862,-0.0787,-0.0772,-0.0701,-0.0698,-0.0745,-0.0787,-0.0785,-0.0614,-0.0614,0,0,0,-0.0773,-0.0747,-0.0791,-0.0728,-0.0768,-0.0858,-0.0866,-0.0776,-0.0794,-0.0697,-0.0743,-0.0786,-0.0783,-0.0615,-0.0614,-0.0745,0,0,0,-0.077,-0.0739,-0.0788,-0.0765,-0.0771,-0.0806,-0.0856,-0.0799,-0.0794,-0.0744,-0.0786,-0.0782,-0.0615,-0.0614,-0.0743,-0.0801,0,0,0,-0.0741,-0.0735,-0.075,-0.0763,-0.0816,-0.081,-0.0825,-0.0801,-0.0819,-0.0788,-0.0781,-0.0616,-0.0615,-0.0741,-0.0797,-0.095,0,0,0,-0.0696,-0.0708,-0.0749,-0.0764,-0.0815,-0.0837,-0.0827,-0.0812,-0.0783,-0.0785,-0.0615,-0.0614,-0.074,-0.0794,-0.0945,-0.0959,-0.0983,0,0,-0.0689,-0.0706,-0.0716,-0.0756,-0.0791,-0.0822,-0.0838,-0.0792,-0.0729,-0.0622,-0.0621,-0.0744,-0.0796,-0.0949,-0.089,-0.0917,0,0,0,-0.0699,-0.0714,-0.0724,-0.076,-0.078,-0.0837,-0.0805,-0.0797,-0.0755,-0.0711,-0.0682,-0.071,-0.0805,-0.0798,-0.0818,-0.0762,-0.0609,-0.0609,-0.0609,-0.0662,-0.0698,-0.0723,-0.0773,-0.0785,-0.0818,-0.0865,-0.0838,-0.0744,-0.0743,-0.0772,-0.0911,-0.0899,-0.0916,-0.0855,-0.0718,-0.0718,-0.0718,-0.0719,-0.068,-0.071,-0.0751,-0.079,-0.0838,-0.0845,-0.0901,-0.09,-0.0959,-0.0832,-0.092,-0.0877,-0.0946,-0.0873,-0.0726,-0.0725,-0.0724,-0.0723,-0.0723,-0.0671,-0.0694,-0.0721,-0.0786,-0.0841,-0.0879,-0.0989,-0.1014,-0.1063,-0.1146,-0.1153,-0.115,-0.1134,-0.1191,-0.1192,-0.1193,-0.1193,-0.1194,-0.1195,-0.0654,-0.0689,-0.0716,-0.0783,-0.0818,-0.0892,-0.103,-0.1146,-0.1281,-0.1289,-0.1289,-0.1146,-0.1056,-0.1093,-0.1209,-0.1206,-0.1205,-0.1203,-0.1202,-0.0669,-0.0659,-0.0699,-0.0731,-0.0829,-0.0911,-0.1069,-0.1328,-0.1479,-0.158,-0.141,-0.1395,-0.1373,-0.1352,-0.1394,-0.1582,-0.1582,-0.1582,-0.1582,-0.0658,-0.0665,-0.0692,-0.0733,-0.0822,-0.092,-0.1145,-0.135,-0.1509,-0.1515,-0.1535,-0.1392,-0.1379,-0.1348,-0.1328,-0.1363,-0.154,-0.154,-0.1539,-0.0674,-0.0671,-0.0683,-0.0712,-0.0806,-0.0938,-0.1109,-0.1283,-0.1451,-0.153,-0.1465,-0.1467,-0.1241,-0.1226,-0.1152,-0.1128,-0.1176,0,0]},{"header":{"parameterUnit":"m.s-1","parameterCategory":2,"la1":30.2992,"la2":30.254,"lo1":-89.0895,"lo2":-89.0443,"dy":0.0025,"dx":0.0025,"nx":19,"ny":19,"refTime":"2026-04-15T03:00:00:Z","depth":"0","parameterNumber":3,"parameterNumberName":"V-component_of_CURRENTS"},"data":[0,0,0,-0.0041,-0.0041,0.0036,0.0037,0.0329,0.0332,0,0,0,0,0,0,0,0,0,0,0,-0.0056,-0.0056,-0.0041,-0.0041,0.0036,0.0037,0.0329,0.0332,0,0,0,0,0,0,0,0,0,0,0,-0.0056,-0.0056,-0.0056,-0.004,0.0036,0.0037,0.0328,0.023,0,0,0,0,0,0,0,0,0,0,0.0135,0.0082,-0.0056,-0.0056,-0.004,0.0036,0.0037,0.0223,0.0236,0.034,0,0.0334,0,0.0326,0.0353,0.0354,0,0,0,-0.0008,0.0071,0.0083,-0.0056,-0.004,0.0035,0.0011,0.0229,0.0244,0.0358,0.0338,0.0347,0.0331,0.0355,0.0357,0.0615,0.0615,0,0,-0.0012,-0.0021,0.0072,0.0091,-0.0037,0.0008,0.0013,0.0236,0.0254,0.0339,0.0353,0.0336,0.0357,0.036,0.0614,0.0615,0,0,0,-0.0046,-0.0025,-0.002,0.0081,0.0072,0.0009,0.0015,0.0245,0.0242,0.0356,0.0339,0.0359,0.0363,0.0614,0.0614,0.0533,0,0,0,-0.0047,-0.0047,-0.0023,-0.0024,0.0065,0.0131,0.0018,0.0227,0.0251,0.0338,0.0359,0.0366,0.0613,0.0614,0.0534,0.0471,0,0,0,-0.0056,-0.0048,-0.0048,-0.0026,-0.0011,0.0126,0.0138,0.0232,0.0241,0.0355,0.0367,0.0613,0.0614,0.0535,0.0474,0.0432,0,0,0,-0.0055,-0.0062,-0.0048,-0.004,-0.0012,0.0092,0.0136,0.025,0.0348,0.0361,0.0613,0.0614,0.0535,0.0477,0.0434,0.0385,0.037,0,0,-0.0067,-0.0064,-0.0056,-0.0042,0.0022,0.0085,0.0189,0.033,0.0399,0.0559,0.0564,0.0533,0.0475,0.0433,0.0451,0.0433,0,0,0,-0.006,-0.0063,-0.0031,0.0002,0.0088,0.0163,0.0299,0.0351,0.0461,0.0451,0.058,0.0546,0.0521,0.0499,0.0486,0.069,0.062,0.0619,0.0619,-0.008,-0.0052,-0.0021,0.0034,0.0113,0.0251,0.031,0.0407,0.0503,0.0524,0.0514,0.0472,0.0451,0.044,0.0652,0.057,0.057,0.057,0.057,-0.0101,-0.0095,-0.0035,-0.0006,0.0094,0.0191,0.0326,0.0372,0.0431,0.0494,0.0475,0.0458,0.042,0.0653,0.0565,0.0566,0.0567,0.0567,0.0567,-0.0123,-0.0122,-0.0107,-0.0064,-0.0,0.0123,0.0137,0.0244,0.0333,0.0323,0.0318,0.0319,0.049,0.032,0.032,0.0319,0.0319,0.0319,0.0318,-0.0161,-0.0147,-0.0165,-0.0124,-0.0113,-0.0076,0.002,0.0042,0.0129,0.0215,0.0215,0.0514,0.0395,0.0366,0.0311,0.0313,0.0314,0.0314,0.0315,-0.021,-0.0212,-0.0246,-0.0255,-0.0252,-0.0299,-0.0206,-0.0164,-0.0103,-0.008,0.0356,0.017,0.0184,0.0196,0.0164,0.006,0.006,0.006,0.006,-0.025,-0.0251,-0.032,-0.0366,-0.0402,-0.04,-0.0478,-0.0336,0.0029,0.0269,0.037,0.0461,0.0462,0.0501,0.0506,0.0485,0.0465,0.0466,0.0467,-0.0286,-0.0305,-0.0372,-0.0421,-0.0474,-0.0541,-0.0616,-0.0426,0.0195,0.051,0.0666,0.0649,0.0815,0.08,0.0889,0.088,0.0855,0,0]}],[{"header":{"parameterUnit":"m.s-1","parameterCategory":2,"la1":30.2992,"la2":30.254,"lo1":-89.0895,"lo2":-89.0443,"dy":0.0025,"dx":0.0025,"nx":19,"ny":19,"refTime":"2026-04-15T03:00:00:Z","depth":"2","parameterNumber":2,"parameterNumberName":"U-component_of_CURRENTS"},"data":[0,0,0,-0.0758,-0.0761,-0.0869,-0.0869,-0.0743,-0.0741,0,0,0,0,0,0,0,0,0,0,0,-0.0706,-0.0707,-0.0758,-0.0761,-0.0869,-0.0869,-0.0744,-0.0741,0,0,0,0,0,0,0,0,0,0,0,-0.0706,-0.0707,-0.0708,-0.0761,-0.0869,-0.0869,-0.0744,-0.0726,0,0,0,0,0,0,0,0,0,0,-0.0653,-0.0641,-0.0707,-0.0708,-0.0762,-0.0869,-0.0869,-0.0728,-0.0727,-0.0621,0,-0.0642,0,-0.0691,-0.0728,-0.0727,0,0,0,-0.0753,-0.0642,-0.0679,-0.0708,-0.0763,-0.0869,-0.0818,-0.073,-0.0728,-0.0618,-0.0641,-0.0639,-0.0689,-0.0726,-0.0725,-0.0546,-0.0546,0,0,-0.0747,-0.071,-0.0682,-0.0679,-0.0789,-0.0815,-0.0822,-0.0732,-0.0716,-0.0641,-0.0637,-0.0687,-0.0725,-0.0723,-0.0547,-0.0546,0,0,0,-0.0735,-0.0706,-0.0751,-0.0681,-0.0724,-0.0818,-0.0826,-0.0721,-0.0739,-0.0636,-0.0685,-0.0724,-0.0721,-0.0547,-0.0547,-0.0687,0,0,0,-0.0731,-0.07,-0.0748,-0.0725,-0.0728,-0.0759,-0.0816,-0.0745,-0.0738,-0.0686,-0.0724,-0.0719,-0.0548,-0.0547,-0.0684,-0.074,0,0,0,-0.0702,-0.0697,-0.0713,-0.0723,-0.0778,-0.0764,-0.0778,-0.0747,-0.0766,-0.0727,-0.0719,-0.0548,-0.0547,-0.0682,-0.0735,-0.0891,0,0,0,-0.0656,-0.0669,-0.0711,-0.0727,-0.0777,-0.079,-0.078,-0.0756,-0.072,-0.0723,-0.0548,-0.0547,-0.0681,-0.0732,-0.0886,-0.0869,-0.0892,0,0,-0.0649,-0.0667,-0.0677,-0.0718,-0.0748,-0.0775,-0.0788,-0.0733,-0.0667,-0.0557,-0.0556,-0.0685,-0.0735,-0.089,-0.0811,-0.0836,0,0,0,-0.0659,-0.0674,-0.0681,-0.0716,-0.0731,-0.0786,-0.0745,-0.074,-0.07,-0.0648,-0.0625,-0.065,-0.0746,-0.0721,-0.074,-0.0542,-0.0542,-0.0542,-0.0542,-0.0616,-0.0653,-0.0675,-0.0723,-0.0732,-0.0762,-0.0809,-0.0786,-0.0687,-0.0693,-0.0721,-0.0868,-0.0836,-0.0852,-0.067,-0.0671,-0.0671,-0.0672,-0.0672,-0.0633,-0.0662,-0.0703,-0.0741,-0.0787,-0.0793,-0.0853,-0.0854,-0.0918,-0.079,-0.0879,-0.0811,-0.0882,-0.0682,-0.068,-0.0679,-0.0678,-0.0677,-0.0676,-0.0626,-0.0647,-0.0674,-0.0739,-0.0796,-0.0836,-0.0956,-0.098,-0.1027,-0.1111,-0.1097,-0.1093,-0.1027,-0.1159,-0.116,-0.1161,-0.1162,-0.1163,-0.1163,-0.0608,-0.0641,-0.067,-0.0739,-0.0775,-0.0859,-0.1003,-0.112,-0.1241,-0.1235,-0.1235,-0.1034,-0.1018,-0.1052,-0.1178,-0.1175,-0.1173,-0.1172,-0.1171,-0.0619,-0.0608,-0.0655,-0.0689,-0.0794,-0.089,-0.1052,-0.13,-0.144,-0.1529,-0.1339,-0.133,-0.13,-0.128,-0.1318,-0.1506,-0.1506,-0.1506,-0.1506,-0.06,-0.0609,-0.064,-0.0692,-0.0792,-0.0905,-0.1126,-0.1288,-0.143,-0.1414,-0.1417,-0.1264,-0.1253,-0.121,-0.1192,-0.1223,-0.1387,-0.1387,-0.1386,-0.0604,-0.0607,-0.0623,-0.067,-0.078,-0.0931,-0.1092,-0.1161,-0.1247,-0.1376,-0.1344,-0.1508,-0.1283,-0.1267,-0.1192,-0.1166,-0.1213,0,0]},{"header":{"parameterUnit":"m.s-1","parameterCategory":2,"la1":30.2992,"la2":30.254,"lo1":-89.0895,"lo2":-89.0443,"dy":0.0025,"dx":0.0025,"nx":19,"ny":19,"refTime":"2026-04-15T03:00:00:Z","depth":"2","parameterNumber":3,"parameterNumberName":"V-component_of_CURRENTS"},"data":[0,0,0,-0.0151,-0.0151,-0.0075,-0.0074,0.017,0.0172,0,0,0,0,0,0,0,0,0,0,0,-0.0169,-0.0168,-0.0151,-0.015,-0.0075,-0.0074,0.0169,0.0172,0,0,0,0,0,0,0,0,0,0,0,-0.0169,-0.0168,-0.0168,-0.015,-0.0075,-0.0074,0.0169,0.0082,0,0,0,0,0,0,0,0,0,0,-0.0008,-0.0054,-0.0169,-0.0168,-0.015,-0.0075,-0.0074,0.0076,0.0087,0.0169,0,0.0167,0,0.0164,0.0189,0.019,0,0,0,-0.0124,-0.0064,-0.0049,-0.0168,-0.015,-0.0075,-0.0101,0.0081,0.0094,0.0185,0.017,0.0178,0.0168,0.0191,0.0192,0.0375,0.0375,0,0,-0.0128,-0.0139,-0.0059,-0.0042,-0.0145,-0.0104,-0.01,0.0088,0.0102,0.017,0.0183,0.0172,0.0193,0.0195,0.0375,0.0375,0,0,0,-0.0158,-0.0142,-0.0134,-0.0051,-0.0055,-0.0103,-0.0097,0.0094,0.0094,0.0185,0.0175,0.0194,0.0197,0.0375,0.0375,0.0351,0,0,0,-0.0159,-0.0162,-0.0137,-0.014,-0.0061,-0.0001,-0.0095,0.0081,0.0101,0.0174,0.0194,0.02,0.0375,0.0375,0.0351,0.0303,0,0,0,-0.0169,-0.0162,-0.0161,-0.0141,-0.0123,-0.0005,0.0007,0.0085,0.0095,0.019,0.0201,0.0375,0.0375,0.0352,0.0305,0.0271,0,0,0,-0.0172,-0.0187,-0.0161,-0.0164,-0.0124,-0.0055,0.0005,0.0093,0.0174,0.0196,0.0375,0.0375,0.0352,0.0306,0.0272,0.0219,0.0207,0,0,-0.0198,-0.019,-0.019,-0.0166,-0.0128,-0.0062,-0.0006,0.0126,0.0202,0.0329,0.0332,0.0351,0.0305,0.0271,0.0229,0.0217,0,0,0,-0.0202,-0.0207,-0.0186,-0.0159,-0.0093,-0.0021,0.0078,0.0144,0.0269,0.0242,0.0362,0.0332,0.0312,0.0284,0.0275,0.0376,0.0376,0.0376,0.0376,-0.0247,-0.0218,-0.0209,-0.0161,-0.0099,0.0021,0.0089,0.0195,0.027,0.0322,0.0322,0.0287,0.026,0.0251,0.0354,0.0354,0.0353,0.0353,0.0353,-0.0316,-0.0313,-0.0248,-0.0234,-0.0122,-0.0051,0.0111,0.0177,0.0254,0.0322,0.0304,0.0271,0.0239,0.0352,0.0352,0.0352,0.0352,0.0352,0.0353,-0.0374,-0.0364,-0.0349,-0.0306,-0.0211,-0.0095,-0.0039,0.0092,0.021,0.0214,0.0175,0.0175,0.0243,0.0205,0.0205,0.0204,0.0204,0.0204,0.0203,-0.0434,-0.0411,-0.0424,-0.037,-0.0328,-0.026,-0.0113,-0.0074,0.0026,0.0113,0.0113,0.0236,0.0241,0.0234,0.0198,0.0199,0.02,0.02,0.0201,-0.0477,-0.0465,-0.0507,-0.0493,-0.0441,-0.0456,-0.033,-0.0262,-0.0185,-0.0156,0.0065,0.0071,0.0061,0.007,0.0058,-0.0021,-0.0021,-0.0021,-0.0021,-0.0488,-0.0497,-0.055,-0.0571,-0.0577,-0.0542,-0.0588,-0.0427,-0.0218,-0.0079,-0.0076,-0.0035,-0.0026,-0.0036,-0.0025,-0.0037,-0.0141,-0.0142,-0.0142,-0.0486,-0.0526,-0.057,-0.0623,-0.0632,-0.0682,-0.0728,-0.0513,-0.0197,-0.0143,-0.0061,-0.0036,0.0034,0.0045,0.004,0.0053,0.0039,0,0]}],[{"header":{"parameterUnit":"m.s-1","parameterCategory":2,"la1":30.2992,"la2":30.254,"lo1":-89.0895,"lo2":-89.0443,"dy":0.0025,"dx":0.0025,"nx":19,"ny":19,"refTime":"2026-04-15T03:00:00:Z","depth":"4","parameterNumber":2,"parameterNumberName":"U-component_of_CURRENTS"},"data":[0,0,0,-0.0808,-0.081,-0.0992,-0.0993,-0.1184,-0.1185,0,0,0,0,0,0,0,0,0,0,0,-0.0774,-0.0775,-0.0808,-0.081,-0.0992,-0.0993,-0.1184,-0.1185,0,0,0,0,0,0,0,0,0,0,0,-0.0774,-0.0775,-0.0776,-0.0811,-0.0991,-0.0993,-0.1184,-0.1068,0,0,0,0,0,0,0,0,0,0,-0.0902,-0.087,-0.0775,-0.0776,-0.0811,-0.0991,-0.0993,-0.1064,-0.1075,-0.1075,0,-0.1098,0,-0.111,-0.1193,-0.1193,0,0,0,-0.0858,-0.0861,-0.0884,-0.0776,-0.0812,-0.099,-0.0923,-0.1071,-0.1084,-0.109,-0.11,-0.1107,-0.1114,-0.1193,-0.1194,-0.1218,-0.1218,0,0,-0.0848,-0.0834,-0.0875,-0.0892,-0.0851,-0.0917,-0.0928,-0.108,-0.1103,-0.1101,-0.1111,-0.1117,-0.1194,-0.1195,-0.1219,-0.1218,0,0,0,-0.0787,-0.0827,-0.0851,-0.0885,-0.0902,-0.0921,-0.0934,-0.1098,-0.1098,-0.1113,-0.1119,-0.1195,-0.1196,-0.1219,-0.1218,-0.127,0,0,0,-0.0784,-0.0787,-0.0846,-0.0843,-0.0898,-0.1007,-0.0948,-0.109,-0.1106,-0.1118,-0.1195,-0.1197,-0.122,-0.1219,-0.127,-0.133,0,0,0,-0.0767,-0.0786,-0.0799,-0.0841,-0.0892,-0.1005,-0.1019,-0.1095,-0.1106,-0.1193,-0.1197,-0.122,-0.1219,-0.127,-0.1328,-0.1344,0,0,0,-0.0758,-0.0787,-0.08,-0.084,-0.089,-0.0947,-0.1019,-0.1129,-0.1209,-0.1195,-0.122,-0.1219,-0.127,-0.1327,-0.1342,-0.1176,0,0,0,-0.0783,-0.0791,-0.0811,-0.0824,-0.0869,-0.0926,-0.0995,-0.1157,-0.1174,-0.1177,-0.1179,-0.127,-0.1328,-0.1343,-0.1095,0,0,0,0,-0.081,-0.0828,-0.0841,-0.0879,-0.091,-0.0987,-0.109,-0.112,-0.1205,-0.1201,-0.1228,-0.1262,-0.1271,-0.1166,-0.1212,-0.1212,-0.1212,-0.1212,-0.1213,-0.0826,-0.0846,-0.088,-0.0914,-0.0957,-0.1047,-0.1119,-0.1168,-0.1181,-0.1214,-0.1271,-0.1279,-0.1164,-0.1212,-0.1213,-0.1213,-0.1213,-0.1213,-0.1213,-0.0843,-0.0851,-0.0907,-0.0949,-0.1009,-0.1071,-0.1153,-0.1207,-0.1276,-0.1262,-0.1266,-0.1186,-0.1217,-0.1217,-0.1216,-0.1215,-0.1215,-0.1215,-0.1215,-0.0823,-0.0828,-0.0875,-0.0938,-0.1036,-0.1115,-0.1177,-0.1284,-0.1327,-0.1379,-0.125,-0.1317,-0.1351,-0.1376,-0.1376,-0.1376,-0.1377,-0.1377,-0.1377,-0.0766,-0.081,-0.0841,-0.0929,-0.098,-0.1084,-0.1221,-0.1252,-0.1348,-0.1308,-0.1407,-0.1334,-0.1329,-0.1359,-0.1382,-0.1381,-0.138,-0.138,-0.138,-0.0708,-0.0732,-0.0766,-0.0809,-0.0919,-0.0985,-0.1128,-0.1175,-0.1212,-0.122,-0.1246,-0.1252,-0.1226,-0.1224,-0.125,-0.1242,-0.124,-0.1238,0,-0.065,-0.0667,-0.0697,-0.0729,-0.078,-0.0914,-0.0907,-0.0981,-0.1093,-0.1077,-0.1208,-0.1235,-0.1239,-0.1205,-0.12,-0.1225,0,0,0,-0.0598,-0.0618,-0.061,-0.0652,-0.0703,-0.0803,-0.0907,-0.0888,-0.111,-0.1066,-0.1188,-0.1201,-0.1235,-0.1396,-0.1371,-0.1364,-0.1412,0,0]},{"header":{"parameterUnit":"m.s-1","parameterCategory":2,"la1":30.2992,"la2":30.254,"lo1":-89.0895,"lo2":-89.0443,"dy":0.0025,"dx":0.0025,"nx":19,"ny":19,"refTime":"2026-04-15T03:00:00:Z","depth":"4","parameterNumber":3,"parameterNumberName":"V-component_of_CURRENTS"},"data":[0,0,0,0.0031,0.0031,0.0076,0.0076,0.0145,0.0146,0,0,0,0,0,0,0,0,0,0,0,0.0023,0.0023,0.0031,0.0031,0.0076,0.0076,0.0145,0.0146,0,0,0,0,0,0,0,0,0,0,0,0.0023,0.0023,0.0023,0.0031,0.0076,0.0076,0.0145,0.0113,0,0,0,0,0,0,0,0,0,0,0.007,0.0052,0.0023,0.0023,0.0031,0.0076,0.0076,0.0111,0.0115,0.0123,0,0.0124,0,0.0125,0.0149,0.0149,0,0,0,0.0049,0.0049,0.0059,0.0023,0.0032,0.0075,0.0061,0.0113,0.0117,0.0128,0.0125,0.0127,0.0126,0.0149,0.015,0.0215,0.0215,0,0,0.0047,0.0037,0.0056,0.0061,0.0035,0.0059,0.0062,0.0116,0.0118,0.0125,0.0128,0.0127,0.015,0.015,0.0215,0.0215,0,0,0,0.0028,0.0035,0.0043,0.0058,0.0059,0.006,0.0063,0.0116,0.0118,0.0129,0.0128,0.015,0.0151,0.0214,0.0215,0.0167,0,0,0,0.0027,0.0022,0.0042,0.0037,0.0058,0.0085,0.0062,0.0115,0.012,0.0128,0.015,0.0151,0.0214,0.0214,0.0167,0.011,0,0,0,0.0023,0.0022,0.0024,0.0036,0.0046,0.0084,0.009,0.0116,0.0119,0.0149,0.0151,0.0213,0.0214,0.0167,0.0112,0.0098,0,0,0,0.0016,0.0009,0.0024,0.0011,0.0046,0.0057,0.009,0.0093,0.0111,0.015,0.0214,0.0215,0.0168,0.0114,0.01,0.0052,0,0,0,0.0001,0.0007,-0.0002,0.0011,0.0001,0.0053,0.0065,0.0093,0.0136,0.0199,0.0201,0.0167,0.0113,0.0099,0.0103,0,0,0,0,-0.0012,-0.0019,-0.0019,-0.0023,-0.0005,0.0013,0.006,0.0097,0.0153,0.0149,0.0198,0.0165,0.0157,0.0136,0.0219,0.0219,0.0218,0.0218,0.0218,-0.0039,-0.004,-0.0064,-0.006,-0.005,-0.0008,0.0016,0.0083,0.0136,0.0162,0.015,0.0134,0.0115,0.0198,0.0198,0.0198,0.0198,0.0197,0.0197,-0.0085,-0.0109,-0.011,-0.0134,-0.0112,-0.0093,-0.0018,0.0025,0.0092,0.0144,0.014,0.0118,0.0193,0.0194,0.0195,0.0195,0.0195,0.0196,0.0196,-0.0116,-0.0131,-0.0147,-0.0189,-0.0202,-0.0162,-0.0162,-0.008,0.002,0.0022,0.0028,0.0098,0.0073,0.004,0.004,0.0039,0.0039,0.0039,0.0039,-0.0146,-0.0164,-0.0214,-0.025,-0.028,-0.0293,-0.0244,-0.0208,-0.0108,-0.0054,0.0009,0.0081,0.0086,0.0065,0.0034,0.0035,0.0036,0.0036,0.0036,-0.019,-0.0195,-0.0269,-0.0312,-0.0388,-0.0392,-0.0362,-0.0288,-0.0252,-0.0197,-0.0081,-0.0074,-0.0068,-0.006,-0.0085,-0.0162,-0.0163,-0.0164,0,-0.0216,-0.0226,-0.0325,-0.0402,-0.0464,-0.0451,-0.0429,-0.0377,-0.0262,-0.0251,-0.0228,-0.01,-0.0093,-0.0087,-0.0081,-0.0112,0,0,0,-0.0253,-0.0271,-0.0348,-0.042,-0.0495,-0.045,-0.0418,-0.0392,-0.0279,-0.0267,-0.0183,-0.0178,-0.0093,0.002,0.0046,0.0052,0.002,0,0]}]]